Погода в Плодовом

Россия / Санкт-Петербург и Ленинградская область     60°50′11″N   30°08′52″E
темп.,
°C
ветер,
м/с
пор.,
м/с
влажн.,
%
обл.,
%
осадки,
мм/ч
давл.,
гПа
погр.,
м
6 марта, сб
сб600:00−10зсз239519 0.0 101569
03:00−11з25969 0.0 101696
06:00−11з259627 0.0 1014125
09:00−8зюз399129 0.0 1013296
12:00−3юз5107469 0.0 10101047
15:00−4ююз7138584 0.1 1004916
18:00−3ююз81789100 0.8 9971321
21:00−1юз71496100 4.1 9901016
7 марта, вс
вс700:00−1зсз81491100 3.7 987944
03:00−8з398774 3.8 987231
06:00−8з389433 0.0 987313
09:00−8зсз488967 1.4 988761
12:00−7сз3585100 0.1 989591
15:00−6с3482100 0.9 992621
18:00−8сз498431 0.0 995533
21:00−8ссз4129465 0.2 998723
8 марта, пн
пн800:00−9ссв51189100 0.6 1001779
03:00−10с51192100 0.9 1005753
06:00−13с41092100 0.1 1008492
09:00−15с41092100 0.1 1011447
12:00−14с4788100 0.0 1013468
15:00−12с3686100 0.1 1015538
18:00−13ссз379099 0.0 1016432
21:00−17сз259674 0.0 1018100
9 марта, вт
вт900:00−17сз249792 0.1 101996
03:00−18сз119890 0.1 101920
06:00−17зюз0097100 0.0 101820
09:00−14юв2592100 0.0 1018254
12:00−14вюв4892100 0.1 1018383
15:00−13вюв5991100 0.6 1018429
18:00−14в5990100 0.3 1017430
21:00−14в5118781 0.3 1019443
10 марта, ср
ср1000:00−15в410870 0.0 1020396
03:00−15в49880 0.0 1022330
06:00−17в37930 0.0 1022188
09:00−16в379011 0.0 1023322
12:00−13в35810 0.0 1024367
15:00−11в35780 0.0 1023406
18:00−14в22870 0.0 102264
21:00−17юв23920 0.0 102138